{"data":{"norad_id":53914,"epoch":"2026-05-24T18:52:19.755264Z","epoch_age_seconds":93532,"freshness":"FRESH","line1":"1 53914U 22119AE  26144.78633976  .00000296  00000+0  36685-4 0  9991","line2":"2 53914  53.2159 332.4572 0001317  87.7394 272.3749 15.08838922203314","mean_motion":15.08838922,"eccentricity":0.0001317,"inclination_deg":53.2159,"raan_deg":332.4572,"arg_perigee_deg":87.7394,"mean_anomaly_deg":272.3749,"bstar":3.6685e-5,"rev_number":20331,"period_min":95.437622863761,"perigee_km":538.83559869963,"apogee_km":540.65776926199,"semimajor_km":6917.8836839808,"source":"CELESTRAK","updated_at":"2026-05-25T13:38:17.611615Z"}}